Regional Weather Roundup
Issued by NWS

Home | Current Version | Previous Version | Text Only | Print | Product List | Glossary On
Versions: 1 2 3 4 5 6 7 8 9 10 11 12 13 14 15 16 17 18 19 20 21 22 23 24 25 26 27 28 29 30 31 32 33 34 35 36 37 38 39 40 41 42 43 44 45 46 47 48 49 50
000
ASUS43 KMKX 010600
RWRWI

WISCONSIN REGIONAL WEATHER ROUNDUP
NATIONAL WEATHER SERVICE MILWAUKEE/SULLIVAN WI
100 AM CDT FRI AUG 01 2014

NOTE: "FAIR" INDICATES FEW OR NO CLOUDS BELOW 12,000 FEET WITH NO
SIGNIFICANT WEATHER AND/OR OBSTRUCTIONS TO VISIBILITY.

WIZ001-002-006>008-014>016-023>028-010700-
NORTHWEST WISCONSIN

CITY           SKY/WX    TMP DP  RH WIND       PRES   REMARKS
SUPERIOR ARPT  MOCLDY    55  55 100 CALM      29.99S FOG
ASHLAND        NOT AVBL
HAYWARD        PTCLDY    57  55  94 CALM      30.01S FOG
SIREN          PTCLDY    62  60  96 CALM      30.01S
RICE LAKE      PTCLDY    61  59  94 CALM      30.03R FOG
LADYSMITH      CLEAR     59  58  96 CALM      30.03S FOG
EAU CLAIRE     NOT AVBL
MENOMONIE      PTCLDY    64  58  80 W3        30.01S
NEW RICHMOND   CLEAR     64  57  77 CALM      30.02S
OSCEOLA        CLEAR     60  60 100 CALM      30.03S
$$

WIZ003>005-009-010-017-018-010700-
NORTH CENTRAL WISCONSIN

CITY           SKY/WX    TMP DP  RH WIND       PRES   REMARKS
WOODRUFF       CLEAR     55  46  71 CALM      30.02S
RHINELANDER    FOG       52  52 100 CALM      30.03S VSB 3/4
EAGLE RIVER    FOG       52  52 100 CALM      30.02R VSB 1/2
LAND O LAKES   CLEAR     50  50  99 CALM      30.03R FOG
PHILLIPS       FOG       58  58  99 CALM      30.01S VSB 1
TOMAHAWK       CLEAR     51  50  95 CALM      30.03S FOG
MEDFORD        PTCLDY    56  56  99 CALM      30.03S FOG
MERRILL        CLEAR     56  56  99 CALM      30.02S FOG
$$

WIZ029-030-035-036-043>047-010700-
CENTRAL WISCONSIN

CITY           SKY/WX    TMP DP  RH WIND       PRES   REMARKS
WAUSAU         NOT AVBL
MOSINEE        CLEAR     61  61 100 W5        30.03S
MARSHFIELD     NOT AVBL
STEVENS POINT  CLEAR     57  57  97 CALM      30.03R
WAUPACA        CLEAR     63  59  87 CALM      30.01S
WAUTOMA        NOT AVBL
WISC RAPIDS    NOT AVBL
CAMP DOUGLAS   NOT AVBL
$$

WIZ011>013-019>022-031-037>040-048>050-010700-
NORTHEAST WISCONSIN

CITY           SKY/WX    TMP DP  RH WIND       PRES   REMARKS
ANTIGO         CLEAR     52  51  97 CALM      30.03S
STURGEON BAY   CLEAR     59  55  88 CALM      30.00S
GREEN BAY      NOT AVBL
MANITOWOC      NOT AVBL
APPLETON       PTCLDY    63  57  82 W7        30.02R
CLINTONVILLE   CLEAR     57  55  94 SW3       30.01R
OSHKOSH        NOT AVBL
$$

WIZ032>034-041-042-053>061-010700-
SOUTHWEST WISCONSIN

CITY           SKY/WX    TMP DP  RH WIND       PRES   REMARKS
LA CROSSE      NOT AVBL
SPARTA         CLEAR     56  55  96 CALM      30.04S
VIROQUA        FAIR      63  57  83 S5        30.05S
BOSCOBEL       CLEAR     58  57  97 CALM      30.04S FOG
PRAIRIE DU CHI CLEAR     60  56  89 CALM      30.04S
PLATTEVILLE    FAIR      65  59  79 CALM      30.06S
$$

WIZ056-057-062-063-064-067-068-010700-
SOUTH CENTRAL WISCONSIN

CITY           SKY/WX    TMP DP  RH WIND       PRES   REMARKS
BARABOO/DELLS  CLEAR     60  57  89 CALM      30.03F
LONE ROCK      NOT AVBL
WATERTOWN      CLEAR     60  59  97 CALM      30.03S
MADISON        NOT AVBL
MIDDLETON      FAIR      59  58  96 CALM      30.04S
MONROE         CLEAR     64  57  77 W8        30.05S
JANESVILLE     CLEAR     64  55  72 CALM      30.04S
$$

WIZ051-052-058>065-066-070>072-010700-
SOUTHEAST WISCONSIN

CITY           SKY/WX    TMP DP  RH WIND       PRES   REMARKS
MILWAUKEE      NOT AVBL
WAUKESHA       CLEAR     61  55  82 SW3       30.04F
MILWAUKEE/TIMM CLEAR     64  55  72 SW3       30.03S
RACINE         NOT AVBL
BURLINGTON     CLEAR     58  56  94 SW3       30.04S
KENOSHA        NOT AVBL
FOND DU LAC    NOT AVBL
SHEBOYGAN      NOT AVBL
WEST BEND      PTCLDY    61  55  82 CALM      30.03S
JUNEAU         CLEAR     62  58  86 SW5       30.04S
$$

LSZ147-162-010700-
LAKE SUPERIOR

STATION/POSITION TIME  TEMP    WIND        PRES    WAVE
                       AIR SEA DIR/SP/G            HT/PER
                 (UTC) (F)     (DEG/KT/KT) (MB)    (FT/S)
W MID LAKE BUOY  0450   56 45  230/  4/  4 1015.0R   0
PORT WING        0540   59     190/  4/  5 1015.9R
SAXON HARBOR     0540          190/  2/  4 1015.6R
$$

LMZ867-665-643>646-010700-
LAKE MICHIGAN

STATION/POSITION TIME  TEMP    WIND        PRES    WAVE
                       AIR SEA DIR/SP/G            HT/PER
                 (UTC) (F)     (DEG/KT/KT) (MB)    (FT/S)
N MID LAKE BUOY  0450   59 55  260/  4/  4 1014.8S   2/ 4
NORTHPORT PIER   0500   63     150/  1/  3 1015.2S
SISTER BAY       0510   65     100/  8/ 11   N/A
ALGOMA LAKESHORE 0521             CALM       N/A
KEWAUNEE LAKESHO 0500   63     300/  6/  8 1014.7R
SHEBOYGAN LAKESH 0500   70     240/  7/  7 1016.1R
PORT WASHINGTON  0540   69     290/  3/  5 1016.6R
ATWATER BUOY     0500   70     250/  6     1017.4R
MILWAUKEE LAKESH 0500   73     260/  3/  4   N/A
S MID LAKE BUOY  0450   66 63  230/  8/  8 1016.8R   0
KENOSHA   LAKESH 0500   72     240/  6/ 10 1016.6R
$$

TC  - TEMPERATURE IN CELSIUS
VSB - VISIBILITY IN STATUTE MILES
WCI - WIND CHILL INDEX
HX  - HEAT INDEX



USA.gov is the U.S. government's official web portal to all federal, state and local government web resources and services.